[[{"header":{"parameterUnit":"m.s-1","parameterCategory":1,"la1":30.2991,"la2":30.254,"lo1":-89.0895,"lo2":-89.0444,"dy":0.0017,"dx":0.0017,"nx":28,"ny":28,"refTime":"2024-08-10T09:00:00:Z","depth":0,"parameterNumber":2,"parameterNumberName":"U-component_of_WINDS"},"data":[0,0,0,0,0,0,0,0,0,0,0,0,0,0,0,0,0,0,0,0,0,0,0,0,0,0,0,0,0,0,0,0,0,0,0,0,0,0,0,0,0,0,0,0,0,0,0,0,0,0,0,0,0,0,0,0,0,0,2.8464,2.8465,0,2.8567,2.8568,2.8569,2.8523,2.8521,2.8518,2.8516,2.8621,2.8626,2.8632,0,0,0,0,0,0,0,0,0,0,0,0,0,2.8228,2.8233,2.8464,2.8465,2.8466,2.8566,2.8568,2.8569,2.8524,2.852,2.8517,2.8514,2.862,2.8626,2.8632,0,0,0,0,0,0,0,0,0,0,0,0,0,2.8331,2.8234,2.8464,2.8456,2.8456,2.8566,2.8568,2.857,2.8524,2.852,2.8517,2.8513,2.8618,2.8625,2.8633,2.8757,0,0,2.8657,2.866,0,0,0,0,0,0,0,0,2.8325,2.834,2.8456,2.8456,2.8457,2.8528,2.8523,2.8632,2.8525,2.8498,2.8516,2.8511,2.8594,2.8603,2.8631,2.8762,2.8766,2.8657,2.8662,2.8665,2.8668,0,0,0,0,0,0,0,2.8318,2.8335,2.8504,2.8457,2.8458,2.8447,2.8457,2.8544,2.8566,2.85,2.8497,2.851,2.8593,2.8623,2.8633,2.8768,2.8657,2.8664,2.8669,2.8672,2.9005,2.9009,0,0,0,0,0,0,2.8311,2.8329,2.8501,2.8508,2.838,2.8454,2.8466,2.8509,2.8565,2.857,2.8513,2.8508,2.8612,2.8624,2.8636,2.8784,2.8665,2.8673,2.8677,2.9001,2.9006,2.9011,0,0,0,0,0,0,2.8306,2.8327,2.8497,2.8418,2.8438,2.8462,2.8511,2.8513,2.8543,2.8575,2.8578,2.854,2.8609,2.8625,2.8727,2.8788,2.8676,2.8683,2.8996,2.9003,2.9009,2.9082,0,0,0,0,0,0,2.83,2.8325,2.8373,2.8419,2.8443,2.8586,2.8515,2.8518,2.8557,2.855,2.8601,2.8605,2.8608,2.8716,2.8735,2.8796,2.8689,2.8991,2.8999,2.9007,2.9075,2.909,2.9104,0,0,0,0,0,2.8291,2.839,2.8375,2.8396,2.8503,2.859,2.8603,2.8604,2.8562,2.8609,2.863,2.8604,2.8778,2.8727,2.8748,2.8812,2.8987,2.8997,2.9006,2.9068,2.9087,2.9104,0,0,0,0,0,0,2.835,2.8396,2.838,2.8497,2.854,2.8582,2.8642,2.8624,2.868,2.8672,2.867,2.8682,2.8787,2.881,2.8752,2.8935,2.8876,2.889,2.8916,2.8935,2.8949,2.8941,2.8696,0,0,0,0,0,2.8377,2.8444,2.848,2.8579,2.8601,2.8618,2.8656,2.8653,2.8697,2.8715,2.8743,2.8788,2.8852,2.8895,2.8956,2.9078,2.9088,2.9133,2.9147,2.9159,2.9171,2.9237,2.9257,2.9042,2.9042,2.9042,0,0,2.8432,2.8465,2.8508,2.8592,2.8624,2.8694,2.8634,2.871,2.8761,2.8727,2.8824,2.8846,2.8896,2.9008,2.9059,2.903,2.9233,2.9171,2.9181,2.9186,2.9249,2.9269,2.9287,2.9048,2.9047,2.9046,0,0,2.8568,2.86,2.8686,2.872,2.8771,2.8781,2.8802,2.8847,2.886,2.8958,2.8934,2.8995,2.9106,2.9142,2.9175,2.9325,2.9303,2.9345,2.9421,2.9485,2.9502,2.9517,2.957,2.9588,2.9357,2.9357,2.9357,0,2.863,2.8734,2.8732,2.881,2.8847,2.882,2.8906,2.894,2.9008,2.9034,2.9001,2.914,2.9172,2.9291,2.9328,2.9356,2.9379,2.9339,2.95,2.9515,2.9529,2.9579,2.9599,2.9362,2.9361,2.9361,2.936,0,2.8808,2.888,2.8943,2.9009,2.9054,2.9136,2.9146,2.9192,2.9184,2.9198,2.9298,2.9335,2.9403,2.9431,2.9425,2.955,2.9531,2.9499,2.944,2.9554,2.9601,2.962,2.9369,2.9367,2.9366,2.9364,0,0,2.8984,2.9047,2.9071,2.91,2.9154,2.9209,2.929,2.9356,2.9394,2.9443,2.951,2.9605,2.9575,2.9613,2.9611,2.9667,2.9782,2.9628,2.9629,2.9655,2.9921,2.9944,2.9966,2.9768,2.9772,2.9775,2.9917,0,2.9123,2.9264,2.9264,2.9394,2.946,2.9435,2.9505,2.9545,2.9561,2.9619,2.9636,2.9703,2.966,2.9682,2.9736,2.9756,2.9835,2.9746,2.983,2.9833,2.9818,2.9991,3.0016,3.0148,2.9935,2.9938,2.9941,0,2.9304,2.9358,2.9494,2.9537,2.9565,2.9628,2.9688,2.9745,2.979,2.9797,2.9839,2.9828,2.991,2.9848,2.9961,2.99,2.9935,2.995,2.9955,2.9962,2.9893,3.0002,3.019,3.021,2.997,2.9967,2.9965,0,2.9418,2.9524,2.9619,2.9645,2.9698,2.9743,2.9767,2.9809,2.9848,2.9901,2.9926,2.9988,3.0022,3.0071,3.0077,3.0032,3.019,3.0129,3.0197,3.0197,3.0231,3.0229,3.0427,3.0255,3.0255,3.0254,3.0254,0,2.9573,2.9657,2.967,2.9729,2.9822,2.9822,2.9915,2.9935,2.9972,3.0034,3.0016,3.0074,3.0079,3.0139,3.0145,3.0236,3.0252,3.026,3.026,3.0261,3.026,3.0283,3.0274,3.026,3.0258,3.0257,3.0257,0,2.9715,2.9728,2.9829,2.9871,2.9884,2.9951,2.9986,3.0042,3.0055,3.0134,3.0152,3.0173,3.0243,3.0254,3.0336,3.034,3.045,3.0441,3.0434,3.0433,3.05,3.0493,3.0719,3.0748,3.0558,3.056,3.0562,0,2.9813,2.9877,2.9926,2.9966,2.9992,3.0057,3.0097,3.01,3.0142,3.0198,3.0247,3.0315,3.0369,3.0482,3.0504,3.0567,3.0559,3.0634,3.0568,3.0567,3.0559,3.0555,3.0561,3.0646,3.0648,3.065,3.0651,0,2.9985,2.9988,3.0046,3.0107,3.0155,3.0203,3.0248,3.0282,3.029,3.0339,3.041,3.0452,3.0535,3.0602,3.0664,3.0689,3.0672,3.0672,3.0691,3.0692,3.0685,3.0689,3.0468,3.0666,3.0665,3.0664,3.0663,3.0662,3.0108,3.0163,3.0206,3.0271,3.0306,3.0348,3.0402,3.0422,3.0481,3.0548,3.0547,3.0624,3.0667,3.0749,3.0778,3.0839,3.0814,3.0842,3.0849,3.0856,3.0862,3.0676,3.085,3.085,3.0849,3.0849,3.0849,0,3.0279,3.0305,3.0365,3.0428,3.0479,3.0458,3.0507,3.0551,3.062,3.0661,3.0715,3.0796,3.0861,3.0889,3.0953,3.0996,3.0989,3.1013,3.1009,3.1015,3.088,3.0857,3.1017,3.1017,3.1017,3.1017,3.1016,3.1016,3.0373,3.0465,3.0473,3.0582,3.0607,3.0683,3.0712,3.0751,3.0784,3.0876,3.0929,3.0947,3.0983,3.1049,3.1108,3.1114,3.1138,3.1165,3.1168,3.1042,3.1024,3.1008,3.0986,3.1171,3.1171,3.1297,3.1299,3.13]},{"header":{"parameterUnit":"m.s-1","parameterCategory":1,"la1":30.2991,"la2":30.254,"lo1":-89.0895,"lo2":-89.0444,"dy":0.0017,"dx":0.0017,"nx":28,"ny":28,"refTime":"2024-08-10T09:00:00:Z","depth":0,"parameterNumber":3,"parameterNumberName":"V-component_of_WINDS"},"data":[0,0,0,0,0,0,0,0,0,0,0,0,0,0,0,0,0,0,0,0,0,0,0,0,0,0,0,0,0,0,0,0,0,0,0,0,0,0,0,0,0,0,0,0,0,0,0,0,0,0,0,0,0,0,0,0,0,0,0.0582,0.0582,0,0.0567,0.0567,0.0567,0.0523,0.0522,0.0521,0.052,0.0507,0.0508,0.0508,0,0,0,0,0,0,0,0,0,0,0,0,0,0.0574,0.0574,0.0582,0.0582,0.0582,0.0567,0.0567,0.0567,0.0523,0.0522,0.0521,0.052,0.0507,0.0508,0.0509,0,0,0,0,0,0,0,0,0,0,0,0,0,0.057,0.0575,0.0582,0.0558,0.0556,0.0567,0.0567,0.0567,0.0523,0.0522,0.052,0.0519,0.0507,0.0508,0.0509,0.0543,0,0,0.0511,0.0512,0,0,0,0,0,0,0,0,0.0571,0.0571,0.0562,0.056,0.0557,0.0545,0.056,0.0559,0.0524,0.0536,0.052,0.0518,0.0521,0.0521,0.0521,0.0543,0.0542,0.0511,0.0512,0.0512,0.0512,0,0,0,0,0,0,0,0.0571,0.0571,0.0576,0.0562,0.0559,0.0549,0.0546,0.0559,0.0537,0.0535,0.0531,0.053,0.052,0.0521,0.0521,0.0542,0.0511,0.0512,0.0513,0.0513,0.059,0.0591,0,0,0,0,0,0,0.0574,0.0572,0.0577,0.0576,0.056,0.055,0.0547,0.0551,0.0537,0.0533,0.0531,0.0528,0.052,0.052,0.052,0.0559,0.0512,0.0513,0.0513,0.0588,0.059,0.0592,0,0,0,0,0,0,0.0574,0.0575,0.0577,0.0573,0.0572,0.0552,0.0556,0.0551,0.0552,0.0534,0.053,0.0536,0.0519,0.0519,0.0537,0.0558,0.0513,0.0514,0.0586,0.0589,0.0591,0.0639,0,0,0,0,0,0,0.0574,0.0575,0.0588,0.0573,0.0573,0.0595,0.0557,0.0552,0.0553,0.0549,0.0538,0.0535,0.0518,0.0536,0.0538,0.0559,0.0515,0.0584,0.0587,0.059,0.0635,0.0642,0.0648,0,0,0,0,0,0.0574,0.0603,0.0589,0.059,0.0588,0.0596,0.0596,0.0575,0.0555,0.0568,0.0556,0.0535,0.0556,0.0539,0.054,0.0562,0.0583,0.0587,0.059,0.0632,0.0641,0.0648,0,0,0,0,0,0,0.0622,0.0601,0.0585,0.061,0.0605,0.0588,0.0604,0.0585,0.0586,0.0582,0.0557,0.0555,0.0577,0.0571,0.0552,0.0594,0.0566,0.057,0.0597,0.0605,0.0612,0.0613,0.0516,0,0,0,0,0,0.0635,0.0643,0.0624,0.0647,0.0645,0.0625,0.0628,0.0612,0.0607,0.0605,0.0594,0.059,0.0596,0.06,0.0604,0.0633,0.063,0.0649,0.0655,0.0661,0.0665,0.068,0.0688,0.0603,0.0603,0.0603,0,0,0.0663,0.0652,0.0659,0.0657,0.0651,0.066,0.0624,0.0635,0.0642,0.0607,0.0623,0.0615,0.0609,0.0633,0.0643,0.0629,0.0687,0.0665,0.067,0.0671,0.0684,0.0692,0.0699,0.0605,0.0605,0.0605,0,0,0.0718,0.071,0.0729,0.0724,0.0715,0.0701,0.0706,0.0692,0.0685,0.0701,0.0675,0.0682,0.0692,0.0689,0.0688,0.0741,0.0721,0.0743,0.0778,0.0792,0.0799,0.0805,0.0824,0.0831,0.0746,0.0747,0.0747,0,0.0754,0.0766,0.0741,0.0754,0.0754,0.0721,0.074,0.0736,0.073,0.0731,0.0714,0.0725,0.0719,0.0741,0.0754,0.0755,0.0759,0.0744,0.08,0.0805,0.0811,0.0828,0.0835,0.0749,0.0749,0.0749,0.0748,0,0.081,0.0819,0.0835,0.0828,0.083,0.0846,0.0824,0.0829,0.0812,0.08,0.0817,0.0807,0.0809,0.0813,0.0798,0.0833,0.0824,0.0804,0.0776,0.0822,0.0838,0.0845,0.0753,0.0752,0.0751,0.0751,0,0,0.0897,0.0875,0.0881,0.0878,0.0865,0.0872,0.0886,0.0886,0.0891,0.0887,0.0898,0.0907,0.0888,0.0887,0.0871,0.0884,0.0926,0.0862,0.0862,0.0875,0.0965,0.098,0.0989,0.0912,0.0914,0.0915,0.0965,0,0.0949,0.0971,0.0949,0.0976,0.0983,0.0952,0.0964,0.0958,0.0947,0.0952,0.0939,0.0946,0.092,0.0919,0.0931,0.0919,0.0944,0.0914,0.0924,0.0924,0.0927,0.0997,0.1014,0.1062,0.0971,0.0973,0.0973,0,0.1013,0.1012,0.1039,0.1024,0.1026,0.1037,0.1036,0.1041,0.1033,0.1024,0.1023,0.1002,0.1015,0.0987,0.1004,0.0985,0.0987,0.0981,0.0983,0.0984,0.0952,0.1001,0.1077,0.1085,0.0983,0.0982,0.0982,0,0.1074,0.1078,0.1095,0.1093,0.1076,0.1084,0.1078,0.1068,0.107,0.1068,0.1069,0.1069,0.107,0.107,0.1051,0.1032,0.1071,0.1041,0.1064,0.1065,0.1075,0.1075,0.1154,0.1075,0.1075,0.1075,0.1075,0,0.1135,0.1154,0.1122,0.1133,0.1152,0.1126,0.1146,0.1136,0.1128,0.1136,0.1109,0.1117,0.109,0.1096,0.1081,0.1098,0.1098,0.1092,0.1088,0.1095,0.1096,0.1096,0.1093,0.1077,0.1077,0.1076,0.1076,0,0.1207,0.1186,0.1203,0.1184,0.118,0.1195,0.118,0.1189,0.1175,0.1186,0.1187,0.1166,0.1171,0.1151,0.1153,0.1143,0.1168,0.1158,0.1171,0.1168,0.1193,0.1191,0.1277,0.1287,0.1201,0.1201,0.1202,0,0.1248,0.1261,0.1244,0.1247,0.1241,0.1247,0.1247,0.1222,0.1224,0.1216,0.1226,0.1229,0.123,0.1239,0.1225,0.1226,0.1216,0.1246,0.1216,0.1223,0.1217,0.1217,0.1218,0.1252,0.1253,0.1254,0.1255,0,0.1323,0.1312,0.1313,0.1312,0.1313,0.1311,0.1306,0.1311,0.1284,0.1287,0.1292,0.1292,0.1294,0.1297,0.1295,0.1288,0.1268,0.1264,0.127,0.1278,0.1285,0.1282,0.1189,0.1263,0.1262,0.1261,0.1261,0.1261,0.1381,0.1391,0.138,0.1382,0.1376,0.1373,0.138,0.1367,0.137,0.1368,0.1353,0.1361,0.1352,0.1347,0.1342,0.1348,0.1334,0.1342,0.1344,0.1347,0.1352,0.1283,0.1347,0.1347,0.1347,0.1347,0.1347,0,0.1455,0.1446,0.1448,0.1443,0.1445,0.1423,0.1417,0.1421,0.1427,0.1421,0.1422,0.1427,0.1429,0.1414,0.1414,0.1422,0.1412,0.1423,0.1423,0.1422,0.1364,0.1359,0.1431,0.1431,0.1431,0.1431,0.1431,0.1431,0.1493,0.1509,0.1496,0.1509,0.1499,0.1506,0.1504,0.1501,0.1495,0.1502,0.1503,0.1493,0.1483,0.1482,0.1483,0.1479,0.1481,0.1495,0.1487,0.1434,0.1426,0.1418,0.1413,0.1495,0.1495,0.1545,0.1545,0.1545]}]]